Vorticity
5 1 5 -1 -4 4 5 4 7 9 8 10 4 6 4 3 3 11 6 2 7 3 6 7 11 10 10 9 0 6 3 8 9 4 -1 6 12 12 -15 23 12 9 4 7 -7
4 6 8 6 4 0 6 4 6 11 5 8 6 7 6 6 6 6 9 12 8 9 4 10 10 9 9 6 8 7 8 12 -1 3 3 3 24 14 -8 17 7 10 13 -4 7
7 4 5 5 12 13 -1 3 5 4 9 8 0 0 10 10 8 5 7 11 9 10 10 6 7 8 9 6 11 8 9 6 2 4 2 3 27 6 -9 25 8 8 0 5 -2
3 3 8 11 6 6 -0 9 10 9 9 8 6 13 13 11 9 5 9 10 6 7 5 8 9 8 11 8 6 8 7 4 4 2 1 8 10 13 2 33 10 8 -1 5 2
3 10 10 12 11 7 6 8 7 13 6 13 6 10 16 16 10 6 9 12 11 8 9 5 8 8 6 6 6 12 5 5 4 3 5 1 13 30 9 19 6 7 2 7 2
16 12 14 11 7 7 7 7 2 3 7 15 18 12 16 16 12 19 8 10 8 9 7 10 8 9 8 7 7 6 8 3 6 7 5 9 20 -1 45 16 8 5 6 8 5
14 15 11 1 10 7 5 10 16 20 18 12 13 15 17 16 21 25 5 13 13 11 10 9 8 7 6 7 8 8 5 6 9 10 10 8 13 16 21 16 7 10 4 6 5
9 3 4 11 6 16 21 18 18 14 11 10 15 13 13 17 17 22 7 9 9 10 8 7 7 8 8 7 9 5 8 6 2 5 13 2 22 25 15 23 10 11 4 -0 3
4 10 12 15 18 14 14 12 13 13 15 18 22 17 22 15 18 16 19 10 10 5 4 6 8 8 10 10 9 8 5 7 6 6 11 4 27 19 9 14 19 2 2 1 9
12 7 11 13 16 15 10 10 13 16 15 13 13 16 16 20 22 23 4 8 13 14 9 10 12 8 11 13 5 2 7 8 9 7 20 13 28 15 7 10 10 9 6 1 8
16 18 19 16 8 7 15 12 12 17 14 15 15 11 16 11 14 15 8 8 9 6 4 9 9 8 6 5 7 6 7 9 7 0 26 17 22 12 -3 23 15 7 14 11 13
13 9 6 7 7 14 15 14 13 11 8 14 12 10 7 9 22 6 5 8 9 9 8 10 9 10 8 9 7 6 7 12 4 3 23 22 11 9 21 25 10 5 7 11 5
9 14 13 16 17 14 10 8 6 10 9 17 8 8 17 9 5 17 13 12 9 6 9 7 9 9 8 7 6 7 10 14 7 5 22 12 21 2 26 34 7 6 3 5 8
15 16 13 11 14 8 7 10 10 5 8 4 13 6 3 11 7 14 12 12 8 9 8 8 10 9 7 9 7 8 8 5 2 4 35 11 13 0 22 13 8 7 7 9 -4
10 7 6 6 8 5 6 8 7 12 7 16 15 20 14 14 9 9 9 11 10 9 8 10 10 9 9 7 8 8 6 7 11 17 28 16 -3 -0 21 12 7 5 4 2 3
3 2 3 6 7 8 8 7 6 6 9 -0 0 3 8 11 15 13 13 12 9 8 8 7 7 5 8 9 9 8 8 6 9 13 20 21 -2 14 15 16 7 8 8 12 7
5 3 3 6 7 5 5 4 4 3 7 7 8 6 10 11 7 5 10 9 8 8 6 6 7 6 8 9 6 7 8 8 8 17 28 19 1 1 30 20 7 9 11 3 12
5 5 7 5 4 3 3 3 2 7 7 10 10 10 9 8 6 8 8 7 7 7 6 5 11 8 9 11 11 11 6 3 6 16 26 18 9 11 21 17 3 5 0 4 13
6 7 6 7 7 6 4 3 8 11 12 18 18 14 9 10 13 7 6 9 8 4 6 10 11 11 8 7 9 7 7 6 12 22 22 15 12 18 31 11 14 6 13 22 18
6 7 8 4 4 5 8 12 12 14 13 11 12 11 11 12 12 9 9 6 9 8 10 11 6 8 9 10 11 8 6 14 17 17 26 14 28 15 6 4 -1 18 17 2 11
8 8 6 6 5 10 9 8 7 7 6 6 5 6 7 8 10 10 13 4 7 11 11 7 5 10 8 14 9 9 4 18 15 32 -17 11 28 10 18 -4 32 8 10 7 13
7 5 6 8 13 9 6 5 6 12 15 11 7 9 7 7 8 9 10 8 8 9 6 12 14 9 8 7 12 11 6 18 6 9 20 28 -4 13 17 17 1 1 6 -3 9
5 7 9 7 7 13 23 36 33 36 36 40 31 27 15 8 8 21 0 14 11 -6 36 7 22 13 17 10 7 10 10 23 -12 -13 7 15 10 4 8 16 27 12 -9 16 3
9 7 11 19 28 34 30 10 22 43 43 49 45 25 20 11 8 13 13 29 6 19 -18 -7 1 11 3 5 14 11 4 14 1 15 19 4 18 8 23 17 20 10 12 7 9
5 16 21 24 24 23 13 15 32 15 -11 17 25 33 38 19 10 14 3 -19 9 32 2 -2 11 -5 2 10 8 15 6 11 -7 26 10 20 13 -1 -21 16 -12 17 8 11 5
19 28 22 20 25 22 21 16 22 11 11 21 1 12 23 25 15 23 15 -22 -26 33 -2 19 10 5 5 14 1 9 11 4 14 0 -7 13 -7 39 -17 14 32 20 13 27 4
23 23 12 17 14 13 20 16 16 21 5 -4 -6 18 13 22 23 18 22 5 12 6 -19 18 3 11 10 7 16 8 13 15 1 6 15 11 19 8 10 -27 5 -7 20 38 2
Height
5758 5758 5755 5753 5753 5751 5748 5745 5743 5742 5742 5742 5741 5741 5741 5741 5740 5741 5742 5744 5742 5741 5740 5741 5742 5744 5744 5745 5746 5748 5751 5755 5757 5754 5752 5749 5747 5750 5752 5753 5751 5751 5753 5755 5753
5748 5747 5745 5743 5740 5738 5737 5735 5733 5732 5731 5730 5730 5730 5730 5730 5730 5730 5732 5732 5733 5732 5731 5732 5734 5735 5735 5737 5737 5739 5744 5746 5746 5743 5743 5741 5738 5740 5743 5742 5742 5743 5744 5744 5747
5736 5734 5732 5731 5728 5726 5723 5723 5721 5718 5718 5718 5718 5718 5718 5718 5718 5720 5720 5721 5723 5724 5723 5723 5725 5726 5727 5728 5729 5732 5735 5735 5737 5734 5733 5733 5731 5730 5731 5734 5734 5735 5736 5739 5742
5722 5721 5720 5718 5716 5714 5711 5709 5708 5706 5704 5705 5705 5705 5706 5707 5709 5708 5709 5711 5711 5712 5714 5715 5716 5717 5719 5719 5720 5722 5726 5726 5727 5724 5723 5725 5723 5720 5720 5727 5726 5728 5730 5734 5738
5709 5707 5705 5704 5703 5700 5698 5695 5695 5695 5692 5692 5692 5693 5695 5696 5692 5697 5698 5699 5700 5701 5704 5706 5707 5708 5708 5710 5710 5714 5717 5716 5717 5715 5714 5715 5715 5713 5710 5717 5719 5719 5724 5729 5732
5695 5693 5691 5690 5689 5689 5686 5684 5682 5681 5680 5678 5680 5682 5682 5682 5679 5681 5684 5687 5690 5690 5693 5695 5697 5699 5700 5701 5703 5705 5707 5707 5707 5706 5704 5704 5707 5703 5709 5713 5711 5713 5719 5724 5727
5682 5679 5678 5677 5676 5675 5673 5671 5670 5669 5666 5665 5667 5669 5669 5665 5667 5669 5671 5675 5678 5681 5682 5685 5687 5689 5691 5693 5693 5695 5698 5698 5698 5695 5693 5692 5696 5696 5707 5702 5704 5708 5713 5716 5723
5667 5666 5666 5665 5663 5663 5660 5658 5658 5657 5655 5655 5655 5657 5657 5653 5655 5656 5661 5665 5669 5672 5672 5674 5677 5680 5681 5683 5685 5686 5688 5689 5688 5685 5684 5680 5690 5692 5696 5693 5696 5701 5705 5711 5717
5656 5655 5653 5653 5653 5651 5648 5646 5648 5647 5646 5645 5646 5645 5647 5644 5645 5648 5651 5654 5658 5662 5664 5665 5669 5672 5673 5674 5677 5678 5679 5679 5680 5676 5674 5670 5675 5684 5682 5684 5690 5693 5698 5704 5710
5646 5644 5643 5644 5643 5641 5638 5636 5638 5639 5638 5637 5637 5639 5637 5637 5636 5639 5641 5645 5648 5652 5656 5659 5660 5663 5665 5665 5668 5667 5669 5671 5670 5668 5664 5663 5666 5674 5675 5676 5681 5687 5692 5696 5703
5634 5632 5632 5634 5633 5633 5631 5629 5632 5634 5631 5631 5629 5629 5629 5628 5629 5630 5632 5637 5641 5645 5648 5650 5653 5656 5655 5655 5657 5658 5660 5661 5661 5660 5657 5656 5658 5665 5667 5670 5675 5681 5685 5691 5697
5625 5624 5624 5625 5625 5625 5623 5622 5623 5625 5628 5621 5621 5621 5621 5621 5625 5625 5627 5631 5634 5637 5640 5642 5645 5645 5646 5647 5648 5649 5651 5652 5652 5652 5649 5650 5650 5657 5658 5663 5668 5673 5677 5684 5690
5616 5615 5614 5615 5616 5616 5615 5615 5614 5616 5618 5620 5614 5614 5616 5617 5618 5619 5617 5623 5626 5628 5631 5632 5636 5637 5637 5639 5640 5642 5642 5643 5644 5643 5642 5641 5644 5648 5652 5654 5661 5666 5671 5678 5684
5609 5607 5606 5608 5610 5609 5608 5608 5608 5608 5608 5611 5611 5609 5609 5609 5611 5612 5612 5615 5618 5622 5622 5624 5628 5628 5629 5631 5632 5634 5634 5635 5635 5635 5635 5634 5637 5639 5647 5651 5656 5661 5666 5673 5679
5601 5601 5600 5600 5603 5604 5603 5602 5601 5601 5600 5602 5603 5603 5601 5603 5604 5605 5607 5608 5611 5613 5617 5619 5620 5621 5623 5624 5625 5627 5626 5627 5625 5628 5626 5630 5630 5634 5640 5646 5651 5655 5662 5668 5674
5596 5595 5593 5595 5597 5596 5594 5595 5595 5596 5594 5595 5595 5597 5597 5597 5597 5598 5600 5602 5604 5607 5608 5611 5611 5614 5616 5617 5618 5619 5619 5618 5618 5619 5619 5622 5626 5627 5636 5643 5648 5652 5657 5662 5666
5589 5587 5587 5589 5589 5587 5586 5588 5587 5586 5587 5587 5588 5588 5589 5590 5591 5593 5593 5595 5596 5600 5602 5604 5606 5607 5609 5610 5611 5612 5613 5611 5611 5610 5612 5614 5620 5621 5633 5636 5641 5647 5652 5656 5660
5581 5579 5579 5580 5579 5578 5578 5578 5576 5576 5575 5576 5577 5577 5578 5580 5583 5583 5585 5588 5590 5592 5594 5597 5600 5600 5602 5603 5605 5607 5606 5606 5604 5605 5607 5608 5612 5617 5626 5629 5635 5641 5647 5651 5656
5573 5570 5570 5570 5570 5569 5567 5565 5564 5563 5564 5564 5567 5566 5567 5570 5572 5574 5578 5581 5583 5585 5587 5589 5593 5594 5595 5595 5599 5600 5601 5600 5598 5598 5600 5603 5612 5612 5618 5624 5631 5636 5641 5646 5652
5564 5560 5560 5559 5559 5557 5555 5553 5551 5550 5551 5551 5554 5554 5556 5557 5560 5563 5568 5572 5575 5577 5578 5582 5586 5586 5589 5590 5591 5593 5596 5595 5595 5596 5596 5599 5605 5604 5611 5618 5625 5630 5635 5641 5646
5553 5549 5548 5548 5546 5544 5541 5539 5538 5535 5534 5537 5539 5542 5544 5545 5549 5553 5557 5563 5567 5570 5573 5575 5578 5582 5584 5584 5584 5588 5591 5591 5592 5593 5594 5597 5600 5601 5607 5613 5618 5625 5631 5636 5641
5542 5537 5534 5533 5530 5528 5524 5521 5519 5518 5514 5517 5522 5526 5532 5534 5538 5544 5548 5553 5559 5562 5566 5569 5571 5575 5577 5578 5579 5583 5585 5587 5588 5592 5592 5594 5598 5597 5603 5608 5614 5620 5627 5633 5637
5530 5523 5520 5517 5514 5509 5506 5502 5498 5496 5494 5497 5500 5508 5514 5522 5529 5535 5541 5544 5550 5555 5558 5564 5564 5567 5570 5572 5573 5577 5580 5582 5585 5586 5588 5590 5594 5595 5598 5603 5608 5615 5622 5627 5633
5519 5511 5504 5501 5497 5493 5492 5491 5489 5485 5484 5484 5490 5494 5500 5509 5517 5525 5535 5540 5543 5547 5551 5554 5558 5562 5565 5565 5567 5572 5575 5577 5580 5582 5584 5586 5590 5593 5595 5597 5602 5609 5615 5621 5625
5507 5500 5492 5488 5485 5484 5484 5484 5482 5482 5485 5484 5486 5488 5491 5498 5505 5515 5525 5530 5538 5537 5543 5548 5551 5556 5558 5560 5561 5564 5569 5571 5574 5575 5577 5581 5584 5586 5589 5592 5596 5602 5608 5613 5617
5496 5491 5484 5481 5479 5477 5476 5476 5476 5479 5482 5483 5484 5484 5487 5492 5498 5505 5515 5522 5528 5531 5538 5541 5544 5547 5551 5553 5557 5559 5563 5566 5568 5571 5573 5574 5578 5578 5583 5587 5591 5595 5600 5606 5610
5486 5482 5479 5478 5475 5474 5472 5472 5472 5475 5480 5481 5482 5482 5484 5487 5492 5499 5507 5515 5520 5524 5529 5532 5536 5540 5545 5545 5550 5556 5557 5559 5563 5567 5570 5571 5573 5575 5578 5582 5585 5590 5594 5599 5602